| time (UTC) | temp F | wind direction | speed MPH | gust MPH | rain 1hr in | rain 24hr in | rain mn in | humidity % | barometer mb |
| 20260508034519 | 53 | 241 | 0.0 | 1.0 | 0.00 | 0.00 | 0.00 | 81 | 1013.4 |
| 20260508033015 | 53 | 237 | 0.0 | 3.0 | 0.00 | 0.00 | 0.00 | 79 | 1013.4 |
| 20260508031513 | 53 | 168 | 0.0 | 2.0 | 0.00 | 0.00 | 0.00 | 79 | 1013.3 |
| 20260508030017 | 54 | 167 | 0.0 | 2.0 | 0.00 | 0.00 | 0.00 | 79 | 1013.4 |
| 20260508024516 | 54 | 167 | 0.0 | 1.0 | 0.00 | 0.00 | 0.00 | 76 | 1013.5 |
| 20260508023007 | 54 | 163 | 0.0 | 4.0 | 0.00 | 0.00 | 0.00 | 74 | 1013.4 |
| 20260508021505 | 54 | 254 | 1.0 | 5.0 | 0.00 | 0.00 | 0.00 | 74 | 1013.4 |
| 20260508020006 | 54 | 218 | 0.0 | 7.0 | 0.00 | 0.00 | 0.00 | 73 | 1013.3 |
| 20260508014555 | 55 | 184 | 0.0 | 2.0 | 0.00 | 0.00 | 0.00 | 72 | 1013.0 |
| 20260508013054 | 55 | 171 | 0.0 | 4.0 | 0.00 | 0.00 | 0.00 | 70 | 1012.9 |
| 20260508011528 | 56 | 184 | 0.0 | 4.0 | 0.00 | 0.00 | 0.00 | 69 | 1012.8 |
| 20260508010029 | 58 | 210 | 2.0 | 5.0 | 0.00 | 0.00 | 0.00 | 65 | 1012.6 |
| 20260508004509 | 59 | 165 | 1.0 | 7.0 | 0.00 | 0.00 | 0.00 | 62 | 1012.3 |
| 20260508003009 | 60 | 182 | 1.0 | 7.0 | 0.00 | 0.00 | 0.00 | 60 | 1012.3 |
| 20260508001556 | 60 | 186 | 0.0 | 6.0 | 0.00 | 0.00 | 0.00 | 60 | 1012.4 |
| 20260508000055 | 61 | 202 | 1.0 | 7.0 | 0.00 | 0.00 | 0.00 | 56 | 1012.4 |
| 20260507234533 | 62 | 230 | 3.0 | 8.0 | 0.00 | 0.00 | 0.00 | 53 | 1012.3 |
| 20260507233035 | 63 | 59 | 2.0 | 11.0 | 0.00 | 0.00 | 0.00 | 51 | 1012.2 |
| 20260507231514 | 63 | 253 | 2.0 | 9.0 | 0.00 | 0.00 | 0.00 | 52 | 1012.3 |
| 20260507230024 | 62 | 34 | 1.0 | 15.0 | 0.00 | 0.00 | 0.00 | 53 | 1012.5 |
| 20260507224553 | 62 | 346 | 3.0 | 15.0 | 0.00 | 0.00 | 0.00 | 53 | 1012.5 |
| 20260507223052 | 61 | 281 | 1.0 | 8.0 | 0.00 | 0.00 | 0.00 | 53 | 1012.7 |
| 20260507221533 | 61 | 193 | 1.0 | 6.0 | 0.00 | 0.00 | 0.00 | 54 | 1012.6 |
| 20260507220032 | 61 | 57 | 1.0 | 7.0 | 0.00 | 0.00 | 0.00 | 52 | 1012.8 |
| 20260507214518 | 61 | 12 | 2.0 | 8.0 | 0.00 | 0.00 | 0.00 | 52 | 1012.8 |
| 20260507213016 | 60 | 307 | 2.0 | 8.0 | 0.00 | 0.00 | 0.00 | 54 | 1012.9 |
| 20260507211528 | 60 | 204 | 2.0 | 8.0 | 0.00 | 0.00 | 0.00 | 54 | 1013.1 |
| 20260507210015 | 60 | 341 | 0.0 | 8.0 | 0.00 | 0.00 | 0.00 | 55 | 1013.2 |
| 20260507204512 | 60 | 225 | 2.0 | 15.0 | 0.00 | 0.00 | 0.00 | 54 | 1013.4 |
| 20260507203010 | 60 | 233 | 2.0 | 10.0 | 0.00 | 0.00 | 0.00 | 56 | 1013.7 |
| 20260507201506 | 59 | 229 | 1.0 | 11.0 | 0.00 | 0.00 | 0.00 | 57 | 1013.9 |
| 20260507200005 | 58 | 173 | 1.0 | 6.0 | 0.00 | 0.00 | 0.00 | 60 | 1014.1 |
| 20260507194503 | 56 | 22 | 1.0 | 4.0 | 0.00 | 0.00 | 0.00 | 66 | 1014.2 |
| 20260507193002 | 54 | 60 | 1.0 | 5.0 | 0.00 | 0.00 | 0.00 | 71 | 1014.4 |
| 20260507191543 | 53 | 42 | 3.0 | 8.0 | 0.00 | 0.00 | 0.00 | 73 | 1014.9 |
| 20260507190042 | 53 | 22 | 6.0 | 16.0 | 0.00 | 0.00 | 0.00 | 67 | 1015.7 |
| 20260507184522 | 55 | 24 | 6.0 | 13.0 | 0.00 | 0.00 | 0.00 | 64 | 1015.6 |
| 20260507183022 | 56 | 5 | 5.0 | 12.0 | 0.00 | 0.00 | 0.00 | 62 | 1015.4 |
| 20260507181504 | 56 | 298 | 2.0 | 9.0 | 0.00 | 0.00 | 0.00 | 57 | 1015.5 |
| 20260507180004 | 56 | 314 | 4.0 | 8.0 | 0.00 | 0.00 | 0.00 | 57 | 1015.3 |
| 20260507174544 | 55 | 256 | 0.0 | 7.0 | 0.00 | 0.00 | 0.00 | 62 | 1015.6 |
| 20260507173056 | 54 | 315 | 2.0 | 6.0 | 0.00 | 0.00 | 0.00 | 64 | 1016.1 |
| 20260507171523 | 52 | 284 | 0.0 | 8.0 | 0.00 | 0.00 | 0.00 | 66 | 1016.2 |
| 20260507170040 | 53 | 340 | 3.0 | 17.0 | 0.00 | 0.00 | 0.00 | 66 | 1017.3 |
| 20260507164506 | 56 | 294 | 2.0 | 16.0 | 0.00 | 0.00 | 0.00 | 52 | 1016.8 |
| 20260507163005 | 57 | 23 | 1.0 | 10.0 | 0.00 | 0.00 | 0.00 | 43 | 1016.3 |
| 20260507161552 | 57 | 265 | 2.0 | 11.0 | 0.00 | 0.00 | 0.00 | 42 | 1016.3 |
| 20260507160047 | 58 | 250 | 3.0 | 10.0 | 0.00 | 0.00 | 0.00 | 40 | 1016.1 |
| 20260507154527 | 58 | 290 | 3.0 | 12.0 | 0.00 | 0.00 | 0.00 | 41 | 1016.0 |
| 20260507153024 | 57 | 150 | 3.0 | 8.0 | 0.00 | 0.00 | 0.00 | 44 | 1016.2 |
| 20260507151504 | 57 | 197 | 3.0 | 10.0 | 0.00 | 0.00 | 0.00 | 46 | 1016.6 |
| 20260507150003 | 56 | 18 | 3.0 | 11.0 | 0.00 | 0.00 | 0.00 | 47 | 1016.7 |
| 20260507144544 | 56 | 168 | 2.0 | 9.0 | 0.00 | 0.00 | 0.00 | 51 | 1016.8 |
| 20260507143042 | 54 | 292 | 1.0 | 11.0 | 0.00 | 0.00 | 0.00 | 51 | 1017.2 |
| 20260507141518 | 53 | 206 | 0.0 | 8.0 | 0.00 | 0.00 | 0.00 | 57 | 1017.5 |
| 20260507140015 | 51 | 241 | 0.0 | 4.0 | 0.00 | 0.00 | 0.00 | 60 | 1017.6 |
| 20260507134553 | 51 | 253 | 2.0 | 6.0 | 0.00 | 0.00 | 0.00 | 57 | 1017.8 |
| 20260507133049 | 49 | 240 | 2.0 | 4.0 | 0.00 | 0.00 | 0.00 | 62 | 1017.9 |
| 20260507131528 | 48 | 148 | 1.0 | 5.0 | 0.00 | 0.00 | 0.00 | 69 | 1017.9 |
| 20260507130026 | 46 | 146 | 1.0 | 3.0 | 0.00 | 0.00 | 0.00 | 74 | 1017.9 |
| 20260507124508 | 44 | 46 | 1.0 | 2.0 | 0.00 | 0.00 | 0.00 | 85 | 1018.1 |
| 20260507123008 | 43 | 32 | 0.0 | 0.0 | 0.00 | 0.00 | 0.00 | 92 | 1018.2 |
| 20260507121555 | 41 | 32 | 0.0 | 0.0 | 0.00 | 0.00 | 0.00 | 95 | 1018.1 |
| 20260507120049 | 40 | 31 | 0.0 | 0.0 | 0.00 | 0.00 | 0.00 | 96 | 1017.9 |
| 20260507114632 | 39 | 30 | 0.0 | 0.0 | 0.00 | 0.00 | 0.00 | 96 | 1017.7 |
| 20260507113030 | 38 | 30 | 0.0 | 0.0 | 0.00 | 0.00 | 0.00 | 95 | 1017.8 |
| 20260507111516 | 37 | 30 | 0.0 | 0.0 | 0.00 | 0.00 | 0.00 | 95 | 1017.7 |
| 20260507110012 | 37 | 30 | 0.0 | 0.0 | 0.00 | 0.00 | 0.00 | 95 | 1017.8 |
| 20260507104602 | 37 | 30 | 0.0 | 0.0 | 0.00 | 0.00 | 0.00 | 95 | 1017.8 |
| 20260507103127 | 35 | 30 | 0.0 | 0.0 | 0.00 | 0.00 | 0.00 | 93 | 1017.9 |
| 20260507101538 | 36 | 30 | 0.0 | 0.0 | 0.00 | 0.00 | 0.00 | 93 | 1018.0 |
| 20260507100032 | 37 | 30 | 0.0 | 0.0 | 0.00 | 0.00 | 0.00 | 93 | 1017.9 |
| 20260507094516 | 38 | 30 | 0.0 | 0.0 | 0.00 | 0.00 | 0.00 | 93 | 1018.1 |
| 20260507093016 | 38 | 30 | 0.0 | 0.0 | 0.00 | 0.00 | 0.00 | 93 | 1018.0 |
| 20260507091555 | 38 | 30 | 0.0 | 0.0 | 0.00 | 0.00 | 0.00 | 92 | 1018.1 |
| 20260507090059 | 38 | 30 | 0.0 | 0.0 | 0.00 | 0.00 | 0.00 | 92 | 1018.1 |
| 20260507084544 | 38 | 30 | 0.0 | 0.0 | 0.00 | 0.00 | 0.00 | 90 | 1018.3 |
| 20260507083036 | 38 | 30 | 0.0 | 0.0 | 0.00 | 0.00 | 0.00 | 90 | 1018.3 |
| 20260507081519 | 37 | 30 | 0.0 | 0.0 | 0.00 | 0.00 | 0.00 | 90 | 1018.2 |
| 20260507080018 | 37 | 30 | 0.0 | 0.0 | 0.00 | 0.00 | 0.00 | 89 | 1018.2 |
| 20260507074608 | 37 | 30 | 0.0 | 0.0 | 0.00 | 0.00 | 0.00 | 88 | 1018.2 |
| 20260507073059 | 37 | 30 | 0.0 | 0.0 | 0.00 | 0.00 | 0.00 | 89 | 1018.2 |
| 20260507071541 | 38 | 30 | 0.0 | 0.0 | 0.00 | 0.00 | 0.00 | 89 | 1018.2 |
| 20260507070059 | 38 | 30 | 0.0 | 0.0 | 0.00 | 0.00 | 0.00 | 90 | 1018.3 |
| 20260507064522 | 38 | 30 | 0.0 | 0.0 | 0.00 | 0.00 | 0.00 | 91 | 1018.3 |
| 20260507063021 | 38 | 30 | 0.0 | 0.0 | 0.00 | 0.00 | 0.00 | 89 | 1018.6 |
| 20260507061503 | 38 | 30 | 0.0 | 0.0 | 0.00 | 0.00 | 0.00 | 89 | 1018.7 |
| 20260507060002 | 38 | 30 | 0.0 | 0.0 | 0.00 | 0.00 | 0.00 | 87 | 1018.7 |
| 20260507054615 | 38 | 30 | 0.0 | 0.0 | 0.00 | 0.00 | 0.00 | 85 | 1018.7 |
| 20260507053046 | 39 | 30 | 0.0 | 0.0 | 0.00 | 0.00 | 0.00 | 85 | 1018.7 |
| 20260507051547 | 39 | 30 | 0.0 | 0.0 | 0.00 | 0.00 | 0.00 | 84 | 1018.7 |
| 20260507050037 | 40 | 30 | 0.0 | 0.0 | 0.00 | 0.00 | 0.00 | 84 | 1018.5 |
| 20260507044519 | 40 | 30 | 0.0 | 0.0 | 0.00 | 0.00 | 0.00 | 82 | 1018.5 |
| 20260507043101 | 40 | 30 | 0.0 | 0.0 | 0.00 | 0.00 | 0.00 | 80 | 1018.5 |
| 20260507041604 | 41 | 30 | 0.0 | 0.0 | 0.00 | 0.00 | 0.00 | 80 | 1018.4 |
| 20260507040042 | 41 | 30 | 0.0 | 0.0 | 0.00 | 0.00 | 0.00 | 80 | 1018.6 |